User: anonymous   Login
Location: Unspecified
(0.0000°N, 0.0000°E)
Time: 04:57:37
(UTC+00:00)
Language:

Kosmos-1802 - Orbit

View from above orbital plane
View from above orbital plane
View from above satellite
View from above satellite

Ground track
Ground track

The orbit data is extracted from the following two-line orbital elements,

1 17159U 86093A   18016.89934442  .00000034  00000-0  20005-4 0  9996
2 17159  82.9308 293.4218 0043256  24.2685  47.0490 13.72721572560238
Epoch (UTC): 16 January 2018 21:35:03
Eccentricity: 0.0043256
inclination: 82.9308°
perigee height: 958 km
apogee height: 1021 km
right ascension of ascending node: 293.4218°
argument of perigee: 24.2685°
revolutions per day: 13.72721572
mean anomaly at epoch: 47.0490°
orbit number at epoch: 56023

The dashed part of the orbit path shows where the satellite is in the earth's shadow,  

DLR